Regional Weather Roundup
Issued by NWS

Home | Current Version | Previous Version | Text Only | Print | Product List | Glossary On
Versions: 1 2 3 4 5 6 7 8 9 10 11 12 13 14 15 16 17 18 19 20 21 22 23 24 25 26 27 28 29 30 31 32 33 34 35 36 37 38 39 40 41 42 43 44 45 46 47 48 49 50
000
ASUS43 KMPX 161310
RWRMN
WEATHER ROUNDUP FOR MINNESOTA
NATIONAL WEATHER SERVICE TWIN CITIES/CHANHASSEN MN
700 AM CST TUE JAN 16 2018


NOTE: "FAIR" INDICATES FEW OR NO CLOUDS BELOW 12,000 FEET WITH NO
SIGNIFICANT WEATHER AND/OR OBSTRUCTIONS TO VISIBILITY. N/A MEANS
CURRENT SKY AND/OR WEATHER CONDITIONS ARE NOT AVAILABLE.

MNZ060>063-068>070-161400-
   Twin Cities Metro

CITY           SKY/WX    TMP DP  RH WIND       PRES   REMARKS
TWIN CITIES    CLOUDY     1  -2  87 NW10      30.68R WCI -15
ST PAUL        CLOUDY     2  -2  83 NW13      30.69R WCI -15
CRYSTAL        CLOUDY     0  -7  72 NW10      30.67R WCI -16
BLAINE         CLOUDY     1  -2  85 NW12      30.66R WCI -15
LAKEVILLE      CLOUDY     0  -2  92 NW12      30.66R WCI -18
EDEN PRAIRIE   CLOUDY     1  -4  79 NW13      30.67R WCI -17
SOUTH ST PAUL  CLOUDY     3  -1  82 NW8       30.67R WCI -10
LAKE ELMO      CLOUDY     3   0  85 NW9       30.65R WCI -11
$$
MNZ001>005-007-008-013>017-022>024-027-028-161400-
   Northwest Minnesota

CITY           SKY/WX    TMP DP  RH WIND       PRES   REMARKS
BEMIDJI        FAIR     -15 -20  81 W5        30.65F WCI -28
HALLOCK        FAIR     -15 -20  76 S6        30.72F WCI -29
ROSEAU         FAIR     -17 -22  76 S5        30.69F WCI -29
WARROAD        FAIR     -18 -24  76 SW5       30.67F WCI -31
THIEF RVR FALL FAIR     -21 -26  77 S6        30.72F WCI -36
CROOKSTON      FAIR     -17 -20  83 SW5       30.77F WCI -29
FOSSTON        FAIR     -18 -26  69 CALM      30.70S
DETROIT LAKES  CLOUDY   -13 -18  77 NW6       30.70S WCI -27
MOORHEAD       FAIR     -15 -20  76 CALM      30.78F
PARK RAPIDS    FAIR     -17 -23  73 W3        30.65S
MAHNOMEN       CLOUDY   -17 -21  78 W3        30.70F
$$
MNZ006-009>011-018-025>026-161400-
   North Central Minnesota

CITY           SKY/WX    TMP DP  RH WIND       PRES   REMARKS
BAUDETTE       FAIR     -18 -23  77 CALM      30.65F
FLAG ISLAND    FAIR     -15 -20  76 CALM      30.65F
INTL FALLS     MOCLDY    -8 -12  83 W3        30.65S
WASKISH        FAIR     -17 -20  83 W3        30.67F
BIG FORK       CLOUDY    -6  -9  84 CALM      30.64S
LONGVILLE      CLOUDY    -8 -11  84 NW3       30.65S
GRAND RAPIDS   CLOUDY    -5  -9  83 NW12      30.65S WCI -23
CRANE LAKE     CLOUDY    -2  -6  84 CALM      30.66S
ORR              N/A    N/A N/A N/A CALM        N/A
COOK           CLOUDY    -2  -6  84 W5        30.61F WCI -12
WALKER         PTSUNNY  -13 -17  82 CALM      30.66S
$$
MNZ012-019>021-037-161400-
   Northeast Minnesota

CITY           SKY/WX    TMP DP  RH WIND       PRES   REMARKS
DULUTH         FAIR      -4  -7  87 N8        30.57R WCI -19
ELY            CLOUDY    -2  -6  84 CALM      30.59S
HIBBING        CLOUDY    -4  -7  87 N12       30.60S WCI -22
EVELETH        FLURRIES  -3  -8  79 NW5       30.60F WCI -13
DULUTH HARBOR  CLOUDY     3  -2  78 W7        30.66R WCI  -9
TWO HARBORS    FAIR       1  -6  71 NW7       30.56S WCI -11
SILVER BAY     FAIR      -6  -9  84 CALM      30.56S
GRAND MARAIS     N/A      6  -2  69 N15G23    30.57S WCI -12
G MARAIS ARPRT FAIR      -2  -9  71 NW3       30.49S
$$
MNZ029>031-032-039>041-046>048-054>057-064-161400-
   West Central Minnesota

CITY           SKY/WX    TMP DP  RH WIND       PRES   REMARKS
FERGUS FALLS   FAIR     -15 -18  84 NW6       30.79S WCI -29
WHEATON        CLOUDY   -11 -18  70 NW8       30.80S WCI -28
MORRIS         CLOUDY   -11 -17  77 NW14      30.73F WCI -33
ALEXANDRIA     FAIR     -13 -17  82 NW9       30.67F WCI -31
ELBOW LAKE     FAIR     -12 -17  82 W9        30.73F WCI -31
WADENA         FAIR     -17 -20  83 W5        30.67F WCI -29
GLENWOOD       FAIR     -13 -17  84 NW10      30.68F WCI -32
APPLETON       CLOUDY    -8 -15  71 NW12G17   30.77S WCI -27
BENSON         CLOUDY    -9 -17  70 N8        30.74S WCI -26
ORTONVILLE     CLOUDY   -11 -17  77 NW10G16   30.76S WCI -30
MADISON        CLOUDY    -6 -11  77 NW13      30.77S WCI -25
WILLMAR        FAIR     -11 -17  77 NW12      30.73S WCI -31
$$
MNZ033>034-036-042>043-049>051-058-059-161400-
   Central Minnesota

CITY           SKY/WX    TMP DP  RH WIND       PRES   REMARKS
ST CLOUD       FAIR      -6 -10  83 NW8       30.67S WCI -21
SAUK CENTRE      N/A    -10 -15  80 NW8       30.68S WCI -27
PAYNESVILLE    FAIR      -8 -11  86 NW6       30.69F WCI -21
AITKIN         MOCLDY    -8 -11  84 NW3       30.63S
PINE RIVER     CLOUDY    -9 -13  84 NW3       30.67S
BRAINERD       FAIR      -7 -12  79 NW7       30.66S WCI -21
STAPLES        MOCLDY   -15 -18  84 NW5       30.67S WCI -27
LONG PRAIRIE   FAIR      -9 -15  77 W9        30.67S WCI -27
LITTLE FALLS   CLOUDY    -6 -13  71 CALM      30.68S
LITCHFIELD     FAIR      -8 -11  84 NW7       30.69R WCI -22
BUFFALO        CLOUDY    -3  -8  81 NW6       30.69S WCI -15
MAPLE LAKE     CLOUDY    -3  -7  85 MISG      30.69R
HUTCHINSON     MOCLDY    -7 -12  81 W7        30.70S WCI -22
$$
MNZ037-044-045-052-053-161400-
   East Central Minnesota

CITY           SKY/WX    TMP DP  RH WIND       PRES   REMARKS
PRINCETON      FAIR      -8 -11  84 CALM      30.66S
MORA           FAIR      -4  -8  84 NW6       30.67R WCI -16
CAMBRIDGE        N/A     -4 -11  71 NW3       30.67R
RUSH CITY      MOCLDY    -3  -6  85 NW3       30.66R
MOOSE LAKE     FAIR      -2  -6  84 CALM      30.62S
HINCKLEY       FAIR       0  -4  85 CALM      30.65R
CLOQUET        MOCLDY    -2  -8  78 NW8       30.59S WCI -17
MCGREGOR       CLOUDY     0  -6  78 NW5       30.63S WCI -10
$$
MNZ071>073-080-081-089-090-097-098-161400-
   Southwest Minnesota

CITY           SKY/WX    TMP DP  RH WIND       PRES   REMARKS
MONTEVIDEO     CLOUDY    -8 -13  77 N15G22    30.75S WCI -29
GRANITE FALLS  CLOUDY    -5 -10  80 NW13      30.76F WCI -24
CANBY          CLOUDY    -6 -11  80 W12       30.76S WCI -25
MARSHALL       CLOUDY    -8 -13  78 NW16      30.74R WCI -30
REDWOOD FALLS  CLOUDY   -10 -14  82 NW9       30.74R WCI -27
OLIVIA         CLOUDY    -8 -13  77 NW12G18   30.72S WCI -27
PIPESTONE      CLOUDY    -8 -11  84 N10G16    30.65S WCI -26
WINDOM         LGT SNOW  -9 -20  59 NW13      30.68R WCI -30
WORTHINGTON    CLOUDY   -10 -14  82 NW14      30.67R WCI -31
JACKSON        FLURRIES  -8 -13  77 NW18G25   30.66R WCI -31
SLAYTON        CLOUDY    -9 -13  81 NW10      30.67S WCI -27
$$
MNZ065>067-074>077-082>085-091>093-161400-
   South Central Minnesota

CITY           SKY/WX    TMP DP  RH WIND       PRES   REMARKS
MANKATO        CLOUDY    -6 -11  79 NW15      30.69R HAZE    WCI -27
NEW ULM        FLURRIES  -6 -11  77 NW13      30.71S WCI -25
ST JAMES       FLURRIES  -8 -11  84 NW17      30.71R WCI -31
FAIRMONT       LGT SNOW  -6 -11  79 MISG      30.68R
GLENCOE        CLOUDY    -4  -8  84 NW10      30.69R WCI -21
FARIBAULT      CLOUDY     0  -4  85 NW12      30.64S WCI -18
OWATONNA       CLOUDY    -4  -8  84 W10       30.63R WCI -21
WASECA         CLOUDY    -2  -8  78 NW13      30.67R WCI -21
ALBERT LEA     CLOUDY    -4  -9  77 NW7       30.61S HAZE    WCI -18
$$
MNZ078>079-086>088-094>096-161400-
   Southeast Minnesota

CITY           SKY/WX    TMP DP  RH WIND       PRES   REMARKS
ROCHESTER      CLOUDY     1  -1  91 NW13      30.57R WCI -17
RED WING       CLOUDY     3  -2  78 W6        30.63R WCI  -8
STANTON        CLOUDY     3  -1  82 NW10G16   30.64R WCI -12
DODGE CENTER   LGT SNOW   1  -2  85 NW13      30.58R WCI -16
WINONA         FAIR       1   0  92 NW3         N/A
AUSTIN         CLOUDY    -2  -8  78 NW13      30.59R FOG     WCI -21
PRESTON        CLOUDY     1  -4  82 NW13      30.56R WCI -17
$$
ABBREVIATIONS USED IN REMARKS
   TC - TEMPERATURES IN CELSIUS
  WCI - WIND CHILL INDEX
   HX - HEAT INDEX
  VSB - VISIBILITY
$$




USA.gov is the U.S. government's official web portal to all federal, state and local government web resources and services.